Voltar ao catálogo

DELTA 1 DEB

AtivoSSO
NORAD 9040·DEBRIS·🇺🇸 United States

Lançado Jan 22, 1975 de Vandenberg Space Force Base

Loading…

Próximas Passagens (próximas 24 horas)

TLE

AtualizadoSource: Space-Track

Época: Sep 13, 2026, 17:37 UTC

1 09040U 75004DE  26256.73469173  .00000107  00000-0  38601-4 0  9990
2 09040  97.9277 319.3528 0047257  64.3388 296.2677 14.48892480626184

Acompanhe DELTA 1 DEB em tempo real com AllMySat

Download on the App Store